Weather History for St. Johns, AZ

Change the Weather History Date:

Friday, March 29, 2013

  Actual Average (KSOW) Record (KSOW)
Temperature  
Mean Temperature 49 °F -  
Max Temperature 68 °F 56 °F 77 °F (1997)
Min Temperature 30 °F 36 °F 5 °F (1975)
Degree Days  
Heating Degree Days 16    
Moisture  
Dew Point 13 °F    
Average Humidity 22    
Maximum Humidity 46    
Minimum Humidity 8    
Precipitation  
Precipitation 0.00 in - - ()
Sea Level Pressure  
Sea Level Pressure 30.05 in    
Wind  
Wind Speed 6 mph (WSW)    
Max Wind Speed 17 mph    
Max Gust Speed 28 mph    
Visibility 10 miles    
Events      
Averages and records for this station are not official NWS values.
T = Trace of Precipitation, MM = Missing Value Source: NWS Daily Summary

Daily Weather History Graph

Daily Weather History Graph

Search for Another Location

Airport:

Trip Planner

Search our weather history database for the weather conditions in past years. The results will help you decide how hot, cold, wet, or windy it might be!

Date:

Astronomy

Mar. 29, 2013 Rise Set
Actual Time 6:08 AM MST 6:36 PM MST
Civil Twilight 5:43 AM MST 7:01 PM MST
Nautical Twilight 5:13 AM MST 7:31 PM MST
Astronomical Twilight 4:43 AM MST 8:01 PM MST
Moon 9:31 PM MST (3/29) 7:27 AM MST (3/29)
Length of Visible Light 13h 18m
Length of Day
12h 28m
Waning Gibbous, 93% of the Moon is Illuminated
Mar 29
Waning Gibbous
Apr 2
Last Quarter
Apr 10
New
Apr 18
First Quarter
Apr 25
Full

Hourly Weather History & Observations

Time (MST) Temp. Windchill Dew Point Humidity Pressure Visibility Wind Dir Wind Speed Gust Speed Precip Events Conditions
12:54 AM 43.0 °F 40.3 °F 14.0 °F 31% 30.03 in 10.0 mi SSE 4.6 mph - N/A   Clear
1:54 AM 42.1 °F 38.4 °F 12.9 °F 31% 30.04 in 10.0 mi SSE 5.8 mph - N/A   Clear
2:54 AM 42.1 °F 40.2 °F 12.0 °F 29% 30.02 in 10.0 mi SSE 3.5 mph - N/A   Clear
3:54 AM 37.0 °F - 12.9 °F 37% 30.05 in 10.0 mi Calm Calm - N/A   Clear
4:54 AM 34.0 °F 29.8 °F 12.9 °F 42% 30.07 in 10.0 mi South 4.6 mph - N/A   Clear
5:54 AM 30.9 °F 27.5 °F 12.0 °F 46% 30.12 in 10.0 mi South 3.5 mph - N/A   Clear
6:54 AM 37.9 °F 34.4 °F 12.0 °F 35% 30.13 in 10.0 mi SE 4.6 mph - N/A   Clear
7:54 AM 46.0 °F 44.8 °F 12.9 °F 26% 30.12 in 10.0 mi East 3.5 mph - N/A   Clear
8:54 AM 55.0 °F - 15.1 °F 21% 30.10 in 10.0 mi Calm Calm - N/A   Clear
9:54 AM 59.0 °F - 18.0 °F 20% 30.09 in 10.0 mi Variable 3.5 mph - N/A   Clear
10:54 AM 63.0 °F - 16.0 °F 16% 30.07 in 10.0 mi NNW 8.1 mph - N/A   Clear
11:54 AM 66.0 °F - 14.0 °F 13% 30.06 in 10.0 mi WNW 10.4 mph - N/A   Clear
12:54 PM 66.9 °F - 12.9 °F 12% 30.04 in 10.0 mi West 8.1 mph 18.4 mph N/A   Clear
1:54 PM 71.1 °F - 6.1 °F 8% 29.99 in 10.0 mi WNW 17.3 mph 27.6 mph N/A   Clear
2:54 PM 70.0 °F - 6.1 °F 8% 29.98 in 10.0 mi NW 4.6 mph - N/A   Clear
3:54 PM 71.1 °F - 6.1 °F 8% 29.98 in 10.0 mi WNW 11.5 mph 17.3 mph N/A   Clear
4:54 PM 70.0 °F - 8.1 °F 9% 29.99 in 10.0 mi NW 12.7 mph - N/A   Clear
5:54 PM 68.0 °F - 10.0 °F 11% 30.01 in 10.0 mi NNW 11.5 mph - N/A   Clear
6:54 PM 59.0 °F - 10.0 °F 14% 30.03 in 10.0 mi NNW 6.9 mph - N/A   Clear
7:54 PM 50.0 °F - 10.9 °F 21% 30.05 in 10.0 mi WNW 4.6 mph - N/A   Clear
8:54 PM 48.9 °F - 12.0 °F 23% 30.05 in 10.0 mi South 5.8 mph - N/A   Clear
9:54 PM 52.0 °F - 15.1 °F 23% 30.04 in 10.0 mi SW 8.1 mph - N/A   Clear
10:54 PM 48.0 °F - 12.9 °F 24% 30.05 in 10.0 mi SE 4.6 mph - N/A   Clear
11:54 PM 48.0 °F - 14.0 °F 26% 30.04 in 10.0 mi SE 4.6 mph - N/A   Clear